Location: Newark
(47.6417°N, 6.8500°E)
Time: 19:49:34
(UTC+00:00)

Envisat - Visible Passes

Search period start: 22 November 2019 00:00
Search period end: 02 December 2019 00:00
Orbit: 764 x 766 km, 98.1° (Epoch: 22 November)

Date Brightness Start Highest point End Pass type
(mag) Time Alt. Az. Time Alt. Az. Time Alt. Az.
22 Nov 4.8 05:49:21 10° NNE 05:54:01 35° E 05:58:40 10° SSE visible
22 Nov 2.9 17:06:58 10° SSE 17:11:59 65° ENE 17:17:02 10° N visible
22 Nov 5.6 18:47:59 10° SW 18:51:29 18° W 18:55:00 10° NW visible
23 Nov 5.9 05:13:32 10° NE 05:16:54 18° E 05:20:15 10° SE visible
23 Nov 3.7 16:30:56 10° SE 16:35:25 32° ENE 16:39:55 10° N visible
23 Nov 4.5 18:09:40 10° SSW 18:14:22 37° W 18:19:06 10° NNW visible
24 Nov 3.8 06:14:36 10° NNE 06:19:39 59° E 06:24:39 10° S visible
24 Nov 3.1 17:32:23 10° S 17:37:27 78° WSW 17:42:35 10° NNW visible
24 Nov 6.2 19:16:14 10° W 19:17:20 11° W 19:18:27 10° WNW visible
25 Nov 5.2 05:38:16 10° NE 05:42:41 29° E 05:47:02 10° SSE visible
25 Nov 3.1 16:55:51 10° SE 17:00:45 52° ENE 17:05:42 10° N visible
25 Nov 5.3 18:36:07 10° SW 18:40:05 23° W 18:44:04 10° NW visible
26 Nov 6.1 05:02:51 10° NE 05:05:29 14° E 05:08:07 10° ESE visible
26 Nov 3.9 16:20:02 10° ESE 16:24:14 27° ENE 16:28:28 10° N visible
26 Nov 4.0 17:58:09 10° S 18:03:02 46° W 18:07:56 10° NNW visible
27 Nov 4.2 06:03:24 10° NNE 06:08:20 48° E 06:13:14 10° S visible
27 Nov 2.9 17:21:06 10° SSE 17:26:11 86° ENE 17:31:19 10° NNW visible
27 Nov 6.0 19:03:24 10° WSW 19:05:54 14° W 19:08:24 10° WNW visible
28 Nov 5.6 05:27:14 10° NE 05:31:18 23° E 05:35:19 10° SE visible
28 Nov 3.3 16:44:46 10° SE 16:49:32 43° ENE 16:54:19 10° N visible
28 Nov 5.0 18:24:22 10° SSW 18:28:42 28° W 18:33:04 10° NW visible
29 Nov 6.3 04:52:38 10° ENE 04:54:02 11° E 04:55:26 10° E visible
29 Nov 3.6 17:46:43 10° S 17:51:43 58° W 17:56:45 10° NNW visible
30 Nov 4.6 05:52:14 10° NNE 05:57:00 38° E 06:01:43 10° SSE visible
30 Nov 2.9 17:09:53 10° SSE 17:14:55 70° ENE 17:20:00 10° N visible
30 Nov 5.7 18:51:12 10° SW 18:54:28 17° W 18:57:46 10° NW visible
01 Dec 5.9 05:16:18 10° NE 05:19:53 19° E 05:23:28 10° SE visible
01 Dec 3.6 16:33:46 10° SE 16:38:20 35° ENE 16:42:55 10° N visible
01 Dec 4.6 18:12:44 10° SSW 18:17:20 34° W 18:21:59 10° NNW visible
